Home   Weather   Bernburg (Saale)   Past weeks

Flag for Germany Past Weather in Bernburg (Saale), Saxony-Anhalt, Germany — Yesterday and Last 2 Weeks

Now
37 °F

Sunny.


Feels Like: 32 °F
Forecast: 38 / 51 °F
Wind: 7 mph from South

Location: Leipzig-Schkeuditz

Current Time: Apr 24, 2017 at 7:40:00 am

Latest Report: Apr 24, 2017 at 7:20 am


Visibility: 10 mi

Pressure: 30.09 "Hg

Humidity: 81%

Dew Point: 32 °F

Location of Bernburg (Saale)Location

Past Weather in Bernburg (Saale) — Graph

°F

Bernburg (Saale) Temperature Yesterday

Maximum temperature yesterday: 50 °F (at 4:20 pm)
Minimum temperature yesterday: 37 °F (at 10:20 pm)
Average temperature yesterday: 43 °F

High & Low Weather Summary for the Past Weeks

 TemperatureHumidityPressure
High70 °F (Apr 10, 12:50 pm)100% (Apr 9, 5:20 am)30.60 "Hg (Apr 9, 5:20 am)
Low28 °F (Apr 20, 3:50 am)40% (Apr 20, 5:50 pm)29.80 "Hg (Apr 12, 10:20 pm)
Average45 °F72%30.11 "Hg
* Reported Apr 9 5:20 am — Apr 24 5:50 am, Bernburg (Saale), Weather by CustomWeather, © 2017

Note: Actual official high and low records may vary slightly from our data, if they occured in-between our weather recording intervals... More about our weather records

Advertising

Bernburg (Saale) Weather History for the Previous 24 Hours

Scroll right to see more
 ConditionsComfort  
Time TempWeatherWind HumidityBarometerVisibility
5:50 am
Mon, Apr 24
30 °FClear.6 mph93%30.09 "Hg10 mi
5:20 am32 °FClear.6 mph87%30.12 "Hg10 mi
4:50 am32 °FClear.6 mph93%30.12 "Hg10 mi
4:20 am34 °FPassing clouds.6 mph87%30.12 "HgN/A
3:50 am36 °FClear.8 mph81%30.12 "Hg10 mi
3:20 am36 °FClear.9 mph81%30.15 "Hg10 mi
2:50 am36 °FClear.8 mph81%30.15 "Hg10 mi
2:20 am34 °FPassing clouds.7 mph81%30.15 "HgN/A
1:50 am36 °FPassing clouds.7 mph81%30.15 "HgN/A
1:20 am34 °FClear.9 mph87%30.18 "Hg10 mi
12:50 am39 °FClear.9 mph75%30.15 "Hg10 mi
12:20 am37 °FClear.8 mph81%30.18 "Hg10 mi
11:50 pm
Sun, Apr 23
41 °FPassing clouds.10 mph70%30.18 "HgN/A
11:20 pm41 °FPartly cloudy.9 mph76%30.15 "HgN/A
10:50 pm41 °FPassing clouds.10 mph76%30.15 "HgN/A
10:20 pm37 °FClear.8 mph81%30.18 "Hg10 mi
9:50 pm39 °FClear.9 mph70%30.15 "Hg10 mi
8:50 pm43 °FPassing clouds.16 mph66%30.15 "HgN/A
8:20 pm45 °FSprinkles. Partly cloudy.15 mph57%30.15 "HgN/A
7:50 pm45 °FScattered showers. Partly sunny.14 mph66%30.15 "HgN/A
7:20 pm46 °FSprinkles. Broken clouds.16 mph57%30.12 "HgN/A
6:50 pm46 °FSprinkles. Partly sunny.16 mph53%30.12 "HgN/A
6:20 pm46 °FSunny.21 mph53%30.12 "Hg10 mi
5:50 pm48 °FBroken clouds.18 mph46%30.12 "HgN/A
5:20 pm48 °FBroken clouds.20 mph46%30.12 "HgN/A
4:50 pm48 °FBroken clouds.23 mph50%30.12 "HgN/A
4:20 pm50 °FBroken clouds.21 mph47%30.12 "HgN/A
3:50 pm48 °FBroken clouds.23 mph46%30.12 "HgN/A
3:20 pm46 °FBroken clouds.22 mph50%30.12 "HgN/A
2:50 pm46 °FBroken clouds.22 mph50%30.12 "HgN/A
2:20 pm46 °FScattered showers. Broken clouds.17 mph50%30.12 "HgN/A
1:50 pm45 °FScattered showers. Broken clouds.17 mph53%30.12 "HgN/A
1:20 pm48 °FScattered showers. Broken clouds.16 mph54%30.12 "HgN/A
12:50 pm46 °FSprinkles. Broken clouds.14 mph62%30.12 "HgN/A
12:20 pm45 °FSprinkles. Broken clouds.15 mph81%30.15 "HgN/A
11:50 am45 °FSprinkles. Broken clouds.14 mph71%30.15 "HgN/A
11:20 am45 °FSprinkles. Broken clouds.16 mph71%30.15 "HgN/A
10:50 am41 °FSprinkles. Broken clouds.16 mph81%30.15 "HgN/A
10:20 am43 °FPartly sunny.15 mph71%30.15 "HgN/A
9:50 am43 °FPartly sunny.15 mph71%30.15 "HgN/A
9:20 am43 °FPartly sunny.16 mph71%30.15 "HgN/A
8:50 am41 °FPartly sunny.14 mph76%30.15 "HgN/A
8:20 am41 °FPartly sunny.13 mph81%30.15 "HgN/A
7:50 am41 °FBroken clouds.16 mph81%30.12 "HgN/A
7:20 am41 °FBroken clouds.16 mph81%30.12 "HgN/A
Weather by CustomWeather, © 2017

See weather overviewHow to use our weather pages